Flag for Hungary Weather past 2 weeks in Debrecen, Hungary

Now
75 °F

Sunny.


Feels Like: 77 °F
Forecast: 60 / 69 °F
Wind: 7 mph from South

Location: Debrecen Airport

Current Time: Sep 19, 2014 at 2:36:46 PM

Latest Report: Sep 19, 2014 at 1:45 PM


Visibility: 10 mi

Pressure: 30.15 "Hg

Humidity: 39%

Dew point: 48 °F

Location of DebrecenLocation

Historic Weather in Debrecen — Graph

°F

Debrecen temperature yesterday

Maximum temperature yesterday: 73 °F (at 2:15 PM)
Minimum temperature yesterday: 48 °F (at 6:45 AM)
Average temperature yesterday: 64 °F

Past Weeks' High & Low Weather Summary

 TemperatureHumidityPressure
High84 °F (Sep 4, 3:15 PM)100% (Sep 8, 5:15 AM)30.18 "Hg (Sep 8, 5:15 AM)
Low48 °F (Sep 18, 6:45 AM)35% (Sep 4, 4:15 PM)29.86 "Hg (Sep 11, 3:45 PM)
Average68 °F72%30.02 "Hg
* Reported Sep 4 1:15 PM — Sep 19 1:15 PM, Debrecen, Weather by CustomWeather, © 2014

Note: Actual official high and low records may vary slightly from our data, if they occured in-between our weather recording intervals... More about our weather records

Advertising

Debrecen weather history for previous 24 hours

 ConditionsComfort  
Time TempWeatherWind HumidityBarometerVisibility
1:15 PM
Sep 19
75 °FSunny.8 mph39%30.15 "Hg10 mi
12:45 PM75 °FSunny.8 mph39%30.15 "Hg10 mi
12:15 PM73 °FSunny.8 mph41%30.18 "Hg10 mi
11:45 AM72 °FSunny.8 mph47%30.18 "Hg10 mi
11:15 AM72 °FSunny.9 mph50%30.18 "Hg10 mi
10:45 AM70 °FSunny.8 mph46%30.18 "Hg10 mi
10:15 AM68 °FSunny.7 mph56%30.18 "Hg10 mi
9:45 AM68 °FSunny.6 mph53%30.18 "Hg10 mi
9:15 AM64 °FSunny.5 mph64%30.18 "Hg10 mi
8:45 AM61 °FSunny.2 mph72%30.18 "Hg10 mi
8:15 AM57 °FSunny.No wind82%30.18 "Hg10 mi
7:45 AM55 °FSunny.No wind82%30.18 "Hg10 mi
7:15 AM52 °FSunny.1 mph94%30.18 "Hg10 mi
6:45 AM50 °FClear.No wind88%30.18 "Hg10 mi
6:15 AM50 °FClear.No wind94%30.18 "Hg10 mi
5:45 AM50 °FClear.No wind94%30.18 "Hg10 mi
5:15 AM50 °FClear.No wind94%30.18 "Hg10 mi
4:45 AM50 °FClear.No wind94%30.18 "Hg10 mi
8:45 PM
Sep 18
61 °FClear.No wind72%30.15 "Hg10 mi
8:15 PM61 °FClear.No wind77%30.15 "Hg10 mi
7:45 PM64 °FClear.No wind68%30.15 "Hg10 mi
7:15 PM66 °FSunny.No wind64%30.15 "Hg10 mi
6:45 PM70 °FSunny.No wind53%30.15 "Hg10 mi
6:15 PM72 °FSunny.No wind47%30.15 "Hg10 mi
5:45 PM72 °FSunny.1 mph47%30.15 "Hg10 mi
5:15 PM73 °FSunny.No wind38%30.15 "Hg10 mi
4:45 PM73 °FSunny.1 mph38%30.15 "Hg10 mi
4:15 PM73 °FSunny.No wind41%30.15 "Hg10 mi
3:45 PM73 °FPassing clouds.3 mph38%30.15 "HgN/A
3:15 PM73 °FPassing clouds.3 mph38%30.15 "HgN/A
2:45 PM73 °FPassing clouds.No wind41%30.15 "HgN/A
2:15 PM73 °FPassing clouds.3 mph44%30.15 "HgN/A
Weather by CustomWeather, © 2014

See weather overviewHow to use our weather pages